Flight Track Log - Related Links

Times and Time Zones

All times are in EDT time to prevent confusion due to time zone crossing. See the SKW5165 flight status page for this flight to view local times or setup timezone preferences in your user account.

Time Position Orientation Groundspeed Altitude Reporting Facility
EDT Latitude Longitude Course Direction KTS MPH feet Rate Location/Type
Mon 06:57:58 AM 32.8833 -97.0333 148° Southeast 153 176 1,100  Level Dallas / Fort Worth TRACON
Mon 06:58:52 AM 32.8500 -97.0333 180° South 184 212 3,000 1,988 Climbing Dallas / Fort Worth TRACON
Mon 07:00:00 AM 32.6414 -96.8843 153° Southeast  Level Estimated
Mon 07:00:38 AM 32.7347 -97.0108 171° South 255 293 6,400  Level Fort Worth Center
Mon 07:01:00 AM 32.5562 -96.8333 157° South  Level Estimated
Mon 07:01:38 AM 32.6614 -96.9817 161° South 269 310 9,000  Level Fort Worth Center
Mon 07:02:00 AM 32.4710 -96.7824 159° South  Level Estimated
Mon 07:02:38 AM 32.5842 -96.9475 160° South 295 339 11,600  Level Fort Worth Center
Mon 07:03:00 AM 32.3858 -96.7315 148° Southeast  Level Estimated
Mon 07:03:38 AM 32.5006 -96.9108 160° South 309 356 12,700  Level Fort Worth Center
Mon 07:04:38 AM 32.4167 -96.8744 160° South 337 388 14,300 1,850 Climbing Fort Worth Center
Mon 07:05:38 AM 32.3100 -96.8308 161° South 367 422 16,400 1,850 Climbing Fort Worth Center
Mon 07:06:38 AM 32.2203 -96.7944 161° South 372 428 18,000 1,200 Climbing Fort Worth Center
Mon 07:07:38 AM 32.1136 -96.7536 162° South 384 442 18,800 800 Climbing Fort Worth Center
Mon 07:08:38 AM 32.0006 -96.7153 164° South 406 467 19,600 1,000 Climbing Fort Worth Center
Mon 07:09:38 AM 31.8769 -96.6647 161° South 425 489 20,800 1,085 Climbing Fort Worth Center
Mon 07:10:12 AM 31.8156 -96.6375 159° South 446 513 21,300 947 Climbing Houston Center
Mon 07:11:13 AM 31.6972 -96.5886 161° South 445 512 22,300 992 Climbing Houston Center
Mon 07:12:13 AM 31.5758 -96.5389 161° South 453 521 23,300 992 Climbing Houston Center
Mon 07:13:14 AM 31.4547 -96.4917 162° South 452 520 24,300 885 Climbing Houston Center
Mon 07:14:15 AM 31.3358 -96.4294 156° South 463 533 25,100 793 Climbing Houston Center
Mon 07:15:15 AM 31.2214 -96.3553 151° Southeast 464 534 25,900 -248 Climbing Houston Center
Mon 07:16:16 AM 31.1061 -96.2811 151° Southeast 466 536 24,600 -1,918 Descending Houston Center
Mon 07:17:17 AM 30.9956 -96.2094 151° Southeast 449 517 22,000 -2,479 Descending Houston Center
Mon 07:18:17 AM 30.8875 -96.1419 152° Southeast 437 503 19,600 -2,331 Descending Houston Center
Mon 07:19:18 AM 30.7819 -96.0739 151° Southeast 428 493 17,300 -2,430 Descending Houston Center
Mon 07:20:18 AM 30.6797 -96.0089 151° Southeast 384 442 14,700 -2,579 Descending Houston Center
Mon 07:21:19 AM 30.5889 -95.9514 151° Southeast 370 426 12,100 -2,311 Descending Houston Center
Mon 07:22:20 AM 30.5000 -95.8939 151° Southeast 354 407 10,000 -1,148 Descending Houston Center
Mon 07:23:14 AM 30.4203 -95.8450 152° Southeast 365 420 9,900 -55 Descending Houston Center
Mon 07:24:09 AM 30.3364 -95.7992 155° Southeast 343 395 9,900 -419 Level Houston Center
Mon 07:25:23 AM 30.2606 -95.7589 155° Southeast 301 346 9,000 -1,030 Descending Houston Center
Mon 07:26:23 AM 30.1883 -95.7197 155° Southeast 289 333 7,600 -1,474 Descending Houston Center
Mon 07:27:17 AM 30.1139 -95.6803 155° Southeast 280 322 6,200 -1,377 Descending Houston Center
Mon 07:28:25 AM 30.0494 -95.6439 154° Southeast 276 318 4,800 -1,235 Descending Houston Center

Login

Don't have an account? Register now (free) for customized features, flight alerts, and more!